This is the latest recevied weather packets stored in our database for station/object KA0EGE. If no packets are shown the sender has not sent any weather packets the latest 10 day(s).
| Time | Temp. | Humidity | Pressure | Rain* | Wind** | Luminosity | Snow |
|---|---|---|---|---|---|---|---|
| 1777906315 | 24.44° C | 40% | 1021.3 hPa | 0 mm | - | 625 W/m² | - |
| 1777906012 | 23.89° C | 38% | 1021.2 hPa | 0 mm | - | 612 W/m² | - |
| 1777905708 | 22.78° C | 42% | 1021.2 hPa | 0 mm | - | 594 W/m² | - |
| 1777905405 | 22.78° C | 44% | 1021.4 hPa | 0 mm | - | 571 W/m² | - |
| 1777905103 | 22.78° C | 43% | 1021.3 hPa | 0 mm | - | 563 W/m² | - |
| 1777904800 | 22.78° C | 47% | 1021.4 hPa | 0 mm | - | 562 W/m² | - |
| 1777904497 | 22.78° C | 51% | 1021.3 hPa | 0 mm | - | 542 W/m² | - |
| 1777904193 | 22.22° C | 47% | 1021.4 hPa | 0 mm | - | 523 W/m² | - |
| 1777903891 | 22.22° C | 49% | 1021.3 hPa | 0 mm | - | 490 W/m² | - |
| 1777903587 | 21.67° C | 48% | 1021.5 hPa | 0 mm | - | 489 W/m² | - |
| 1777903283 | 21.67° C | 51% | 1021.4 hPa | 0 mm | - | 389 W/m² | - |
| 1777902980 | 21.11° C | 52% | 1021.4 hPa | 0 mm | - | 277 W/m² | - |
| 1777902676 | 21.11° C | 52% | 1021.3 hPa | 0 mm | - | 459 W/m² | - |
| 1777902374 | 21.11° C | 59% | 1021.2 hPa | 0 mm | - | 374 W/m² | - |
| 1777902070 | 20.56° C | 54% | 1021.1 hPa | 0 mm | - | 421 W/m² | - |
| 1777901769 | 19.44° C | 65% | 1021.3 hPa | 0 mm | - | 358 W/m² | - |
| 1777901466 | 18.89° C | 71% | 1021 hPa | 0 mm | - | 349 W/m² | - |
| 1777901164 | 18.89° C | 67% | 1021.2 hPa | 0 mm | - | 286 W/m² | - |
| 1777900861 | 19.44° C | 64% | 1021.1 hPa | 0 mm | - | 237 W/m² | - |
| 1777900558 | 18.89° C | 64% | 1021.1 hPa | 0 mm | - | 205 W/m² | - |
| 1777900255 | 18.33° C | 66% | 1021 hPa | 0 mm | - | 215 W/m² | - |
| 1777899951 | 17.78° C | 66% | 1021.2 hPa | 0 mm | - | 294 W/m² | - |
| 1777899648 | 17.22° C | 69% | 1021 hPa | 0 mm | - | 245 W/m² | - |
| 1777899346 | 16.67° C | 70% | 1021 hPa | 0 mm | - | 201 W/m² | - |
| 1777899043 | 16.67° C | 71% | 1020.9 hPa | 0 mm | - | 171 W/m² | - |
* Rain latest hour (hover to see other rain measurements)
** Current wind speed in m/s (hover to see current wind gust speed)